"Pseudo-MPEC" for P21JUYX

Created 2023 Sep 19 19:22:34 UT using Find_Orb

Click here for an explanation of pseudo-MPECs

 
 Astrometry: 
     P21JUYX  C2023 09 08`(dbp%_A;L9yOlG=[;WgLxr_;[u!=9h#c4)V4\_Z)R?0,D2^pK`2F52
     P21JUYX  C2023 09 08`5g$N_FF=/ZFeH]K)f'[_yEkDXOn]iZD$,aHSX1g%Pj!s(].B\T3F52
     P21JUYX  C2023 09 08Zf=O#,/Ge1#qM%$+6Fdg6B/c%q+%rvk5Kov5pat2My7Yj]w1s$-\F52
     P21JUYX* C2023 09 18gg-L)3DAstrometry%$Z+M0tDKtredacted;r]Kt[o12^6h@WUN)F52
     P21JUYX  C2023 09 18^;N=sbGrvEwKqZMv/bl@tL%1:yBo'L-BKb'=4X1)3E0cTrUOF(T1F52
     P21JUYX  C2023 09 18v-Tl5S1X'B`x0:clicku!'@1herekO)$O\2aY?;%.uXtU7UQwTaoF52
     P21JUYX  C2023 09 18H6p*V'O_dOc92OTEIIJ1D(_S?;*pIk?q[for5U8p*QZZoNFD\km,F51
     P21JUYX  C2023 09 18;Y*w^qYhg(4-Texplanationov/am:9'NbUN,8?Tx43\1Qt(ecJGF51

Station data:
(F51) Pan-STARRS 1, Haleakala  (N20.707234 W156.255910)  US/Hawaii.
   Observers J. Bulger, T. Lowe, A. Schultz, M. Willman. Measurers K.
   Chambers, S. Chastel, T. de Boer, L. Denneau, J. Fairlamb, H. Flewelling,
   M. Huber, C.-C. Lin, E. Magnier, Y. Ramanjooloo, R. Wainscoat, R. Weryk.
   1.8-m Ritchey-Chrétien + CCD.
(F52) Pan-STARRS 2, Haleakala  (N20.707382 W156.255910)  US/Hawaii.
   Observers J. Bulger, T. Dukes, T. Lowe, A. Schultz, M. Willman. Measurers
   K. Chambers, S. Chastel, T. de Boer, L. Denneau, J. Fairlamb, H.
   Flewelling, M. Huber, C.-C. Lin, E. Magnier, Y. Ramanjooloo, R. Wainscoat,
   R. Weryk. 1.8-m Ritchey-Chrétien + CCD.

Orbital elements:  P21JUYX
   Perihelion 2023 Sep 24.31336 +/- 4.91 TT =  7:31:14 (JD 2460211.81336)
Epoch 2023 Sep 18.0 TT = JDT 2460205.5   Earth MOID: 0.7561      AutoNEOCP
M 358.50981342 +/- 1.2              (J2000 ecliptic)
n   0.23603710 +/- 0.00778          Peri.  255.43683 +/- 3.4
a   2.59307965 +/- 0.057            Node   111.55059 +/- 0.9
e   0.3572620 +/- 0.0108            Incl.   17.31075 +/- 0.19
P   4.18                   H 20.38  G  0.15   U  9.5
q 1.66667077 +/- 0.00947    Q 3.51948853 +/- 0.105
From 8 observations 2023 Sept. 8-18; mean residual 0".11
Residuals in arcseconds: 
230908 F52  .13+  .05-    230918 F52  .01+  .07-    230918 F51  .13-  .03-    
230908 F52  .21-  .22+    230918 F52  .05-  .07+    230918 F51  .12+  .02+    
230908 F52  .08+  .17-    230918 F52  .05+  .01+    

Ephemerides (geocentric):
Date (UTC) HH   RA             Dec           delta  r     elong  mag " sig PA
---- --------  ------------   ------------  ------ ------ -----  --- --------
2023 09 19 19  02 01 18.919   -28 08 22.09  .77796 1.6671 138.2 22.1 1.68  84
2023 09 19 20  02 01 19.174   -28 08 54.08  .77790 1.6671 138.2 22.1 1.74  84
2023 09 19 21  02 01 19.425   -28 09 26.04  .77784 1.6670 138.2 22.1 1.81  83
2023 09 19 22  02 01 19.672   -28 09 57.97  .77778 1.6670 138.2 22.1 1.87  83
2023 09 19 23  02 01 19.914   -28 10 29.86  .77773 1.6670 138.2 22.1 1.93  83
2023 09 20 00  02 01 20.152   -28 11 01.71  .77767 1.6670 138.2 22.1 1.99  83
2023 09 20 01  02 01 20.385   -28 11 33.53  .77761 1.6670 138.2 22.1 2.05  83
2023 09 20 02  02 01 20.615   -28 12 05.32  .77755 1.6670 138.2 22.1 2.12  83
2023 09 20 03  02 01 20.840   -28 12 37.07  .77749 1.6670 138.3 22.1 2.18  83
2023 09 20 04  02 01 21.060   -28 13 08.78  .77743 1.6670 138.3 22.1 2.24  83
2023 09 20 05  02 01 21.277   -28 13 40.46  .77738 1.6670 138.3 22.1 2.31  83
2023 09 20 06  02 01 21.489   -28 14 12.11  .77732 1.6670 138.3 22.1 2.37  83
2023 09 20 07  02 01 21.696   -28 14 43.72  .77726 1.6670 138.3 22.1 2.44  83
2023 09 20 08  02 01 21.900   -28 15 15.29  .77720 1.6670 138.3 22.1 2.51  83
2023 09 20 09  02 01 22.099   -28 15 46.83  .77715 1.6670 138.3 22.1 2.57  83
2023 09 20 10  02 01 22.294   -28 16 18.33  .77709 1.6670 138.3 22.1 2.64  83
2023 09 20 11  02 01 22.484   -28 16 49.79  .77703 1.6670 138.3 22.1 2.70  83
2023 09 20 12  02 01 22.670   -28 17 21.22  .77698 1.6669 138.3 22.1 2.77  82
2023 09 20 13  02 01 22.852   -28 17 52.62  .77692 1.6669 138.4 22.1 2.84  82
2023 09 20 14  02 01 23.030   -28 18 23.98  .77687 1.6669 138.4 22.1 2.91  82
2023 09 20 15  02 01 23.203   -28 18 55.30  .77681 1.6669 138.4 22.1 2.98  82
2023 09 20 16  02 01 23.372   -28 19 26.58  .77676 1.6669 138.4 22.1 3.05  82
2023 09 20 17  02 01 23.537   -28 19 57.83  .77670 1.6669 138.4 22.0 3.12  82
2023 09 20 18  02 01 23.698   -28 20 29.04  .77665 1.6669 138.4 22.0 3.19  82
2023 09 20 19  02 01 23.854   -28 21 00.22  .77659 1.6669 138.4 22.0 3.26  82
2023 09 20 20  02 01 24.006   -28 21 31.36  .77654 1.6669 138.4 22.0 3.33  82
2023 09 20 21  02 01 24.153   -28 22 02.46  .77648 1.6669 138.4 22.0 3.40  82
2023 09 20 22  02 01 24.297   -28 22 33.53  .77643 1.6669 138.5 22.0 3.47  82
2023 09 20 23  02 01 24.436   -28 23 04.56  .77638 1.6669 138.5 22.0 3.54  82
2023 09 21 00  02 01 24.571   -28 23 35.55  .77632 1.6669 138.5 22.0 3.62  82
2023 09 21 01  02 01 24.701   -28 24 06.51  .77627 1.6669 138.5 22.0 3.69  82
2023 09 21 02  02 01 24.828   -28 24 37.43  .77622 1.6669 138.5 22.0 3.76  82
2023 09 21 03  02 01 24.950   -28 25 08.31  .77617 1.6669 138.5 22.0 3.84  82
2023 09 21 04  02 01 25.068   -28 25 39.15  .77611 1.6669 138.5 22.0 3.91  82
2023 09 21 05  02 01 25.181   -28 26 09.96  .77606 1.6669 138.5 22.0 3.99  82
2023 09 21 06  02 01 25.291   -28 26 40.73  .77601 1.6668 138.5 22.0 4.06  82
2023 09 21 07  02 01 25.396   -28 27 11.46  .77596 1.6668 138.5 22.0 4.14  82
2023 09 21 08  02 01 25.497   -28 27 42.16  .77591 1.6668 138.6 22.0 4.21  82
2023 09 21 09  02 01 25.593   -28 28 12.81  .77585 1.6668 138.6 22.0 4.29  82
2023 09 21 10  02 01 25.686   -28 28 43.43  .77580 1.6668 138.6 22.0 4.37  82
2023 09 21 11  02 01 25.774   -28 29 14.02  .77575 1.6668 138.6 22.0 4.44  82
2023 09 21 12  02 01 25.858   -28 29 44.56  .77570 1.6668 138.6 22.0 4.52  82
2023 09 21 13  02 01 25.937   -28 30 15.07  .77565 1.6668 138.6 22.0 4.60  82
2023 09 21 14  02 01 26.013   -28 30 45.53  .77560 1.6668 138.6 22.0 4.68  82
2023 09 21 15  02 01 26.084   -28 31 15.96  .77555 1.6668 138.6 22.0 4.76  82
2023 09 21 16  02 01 26.151   -28 31 46.35  .77550 1.6668 138.6 22.0 4.84  82
2023 09 21 17  02 01 26.214   -28 32 16.71  .77545 1.6668 138.6 22.0 4.92  82
2023 09 21 18  02 01 26.272   -28 32 47.02  .77540 1.6668 138.6 22.0 5.00  83